Location: Eymir
(36.7333°N, 29.7833°E)
Time: 18:08:45
(UTC+00:00)

Meteor 1-13 Rocket - Pass Details

Date: 14 January 2026
Orbit: 830 x 910 km, 81.3° (Epoch: 17 February)

Event Time Altitude Azimuth Distance (km) Brightness Sun altitude
Exits shadow 03:12:37 52° 298° (WNW) 1,124 4.4 -23.7°
Maximum altitude 03:13:27 56° 266° (W) 1,070 4.3 -23.5°
Drops below altitude 10° 03:19:11 10° 189° (S) 2,573 6.7 -22.4°
Sets 03:21:40 0° 185° (S) 3,503 7.5 -21.9°
